KF6ILA Weather Reports


Display with metric or nautical units.
time (UTC)temp
F
wind
direction
speed
MPH
gust
MPH
rain 1hr
in
rain 24hr
in
rain mn
in
humidity
%
barometer
mb
20260508183602 75 273 11.0 25.0 0.00 0.00 0.00 40 1016.8
20260508183105 75 281 11.0 20.0 0.00 0.00 0.00 41 1016.8
20260508182111 74 292 9.0 21.0 0.00 0.00 0.00 40 1016.8
20260508181614 74 277 12.0 22.0 0.00 0.00 0.00 39 1016.8
20260508172148 73 280 14.0 20.0 0.00 0.00 0.00 39 1016.7
20260508170656 73 275 13.0 21.0 0.00 0.00 0.00 37 1016.6
20260508165702 72 282 9.0 23.0 0.00 0.00 0.00 38 1016.7
20260508165205 72 281 10.0 18.0 0.00 0.00 0.00 40 1016.6
20260508163714 72 262 10.0 17.0 0.00 0.00 0.00 42 1016.6
20260508163217 72 257 10.0 16.0 0.00 0.00 0.00 42 1016.7
20260508160732 71 266 9.0 15.0 0.00 0.00 0.00 40 1016.6
20260508160235 70 281 10.0 13.0 0.00 0.00 0.00 40 1016.7
20260508155241 70 274 9.0 15.0 0.00 0.00 0.00 41 1016.6
20260508154744 70 266 8.0 14.0 0.00 0.00 0.00 42 1016.7
20260508150311 68 265 8.0 16.0 0.00 0.00 0.00 37 1016.5
20260508145814 68 269 8.0 16.0 0.00 0.00 0.00 37 1016.4
20260508142832 67 288 6.0 15.0 0.00 0.00 0.00 40 1016.3
20260508135850 64 272 8.0 15.0 0.00 0.00 0.00 45 1015.3
20260508135353 64 284 9.0 13.0 0.00 0.00 0.00 45 1015.4
20260508134856 64 272 9.0 16.0 0.00 0.00 0.00 44 1015.2
20260508134400 64 273 9.0 16.0 0.00 0.00 0.00 45 1015.1
20260508133902 64 272 10.0 16.0 0.00 0.00 0.00 46 1015.1
20260508133405 64 281 9.0 16.0 0.00 0.00 0.00 47 1015.1
20260508131417 62 275 11.0 16.0 0.00 0.00 0.00 49 1015.0
20260508130920 62 271 10.0 17.0 0.00 0.00 0.00 50 1015.0
20260508130423 62 271 9.0 20.0 0.00 0.00 0.00 50 1014.9
20260508125926 62 269 10.0 20.0 0.00 0.00 0.00 50 1014.8
20260508124932 61 272 10.0 17.0 0.00 0.00 0.00 53 1014.8
20260508120459 62 270 10.0 16.0 0.00 0.00 0.00 51 1014.7
20260508120002 62 275 8.0 15.0 0.00 0.00 0.00 50 1014.7
20260508113517 62 279 10.0 16.0 0.00 0.00 0.00 51 1014.7
20260508112026 61 278 9.0 14.0 0.00 0.00 0.00 51 1014.7
20260508111529 61 277 7.0 13.0 0.00 0.00 0.00 51 1014.7
20260508110038 62 272 7.0 16.0 0.00 0.00 0.00 51 1014.8
20260508104050 61 257 10.0 13.0 0.00 0.00 0.00 51 1014.7
20260508103553 61 263 7.0 15.0 0.00 0.00 0.00 51 1014.8
20260508102559 62 253 9.0 13.0 0.00 0.00 0.00 50 1014.9
20260508102102 62 262 8.0 13.0 0.00 0.00 0.00 51 1015.0
20260508101605 62 272 8.0 13.0 0.00 0.00 0.00 50 1015.0
20260508101108 62 264 8.0 14.0 0.00 0.00 0.00 50 1015.1
20260508094623 62 261 8.0 14.0 0.00 0.00 0.00 51 1015.2
20260508094126 62 270 7.0 14.0 0.00 0.00 0.00 50 1015.3
20260508093132 62 262 8.0 15.0 0.00 0.00 0.00 49 1015.3
20260508090150 62 246 13.0 17.0 0.00 0.00 0.00 48 1015.5
20260508084659 63 257 9.0 15.0 0.00 0.00 0.00 47 1015.4
20260508084202 63 259 10.0 16.0 0.00 0.00 0.00 46 1015.5
20260508082711 63 261 12.0 18.0 0.00 0.00 0.00 44 1015.6
20260508081717 63 254 10.0 17.0 0.00 0.00 0.00 46 1015.8
20260508081220 63 252 11.0 17.0 0.00 0.00 0.00 46 1015.8
20260508075729 63 268 9.0 15.0 0.00 0.00 0.00 46 1015.9
20260508074735 63 258 10.0 17.0 0.00 0.00 0.00 47 1016.0
20260508073741 63 256 12.0 17.0 0.00 0.00 0.00 47 1016.1
20260508073244 63 258 12.0 17.0 0.00 0.00 0.00 47 1016.2
20260508071256 63 263 13.0 19.0 0.00 0.00 0.00 49 1016.1
20260508070302 63 256 11.0 18.0 0.00 0.00 0.00 50 1016.0
20260508065805 63 261 11.0 16.0 0.00 0.00 0.00 50 1016.1
20260508065308 62 267 10.0 16.0 0.00 0.00 0.00 52 1016.1
20260508064811 62 257 12.0 17.0 0.00 0.00 0.00 53 1016.1
20260508062823 62 256 10.0 16.0 0.00 0.00 0.00 51 1016.3
20260508062326 62 251 11.0 17.0 0.00 0.00 0.00 51 1016.2
20260508061829 62 255 11.0 17.0 0.00 0.00 0.00 51 1016.2
20260508061332 62 251 11.0 17.0 0.00 0.00 0.00 51 1016.1
20260508060836 62 261 11.0 16.0 0.00 0.00 0.00 51 1016.2
20260508055841 61 247 12.0 18.0 0.00 0.00 0.00 51 1016.3
20260508054847 61 252 11.0 18.0 0.00 0.00 0.00 52 1016.3
20260508053853 61 246 13.0 18.0 0.00 0.00 0.00 51 1016.2
20260508051408 62 244 13.0 18.0 0.00 0.00 0.00 50 1016.3
20260508050911 62 248 14.0 18.0 0.00 0.00 0.00 50 1016.4
20260508050414 62 250 14.0 18.0 0.00 0.00 0.00 50 1016.4
20260508045917 61 249 15.0 18.0 0.00 0.00 0.00 50 1016.3
20260508045420 62 249 13.0 18.0 0.00 0.00 0.00 50 1016.4
20260508044923 62 251 11.0 18.0 0.00 0.00 0.00 51 1016.5
20260508044426 62 247 12.0 19.0 0.00 0.00 0.00 49 1016.5
20260508043432 62 250 13.0 21.0 0.00 0.00 0.00 50 1016.5
20260508042935 61 249 16.0 21.0 0.00 0.00 0.00 51 1016.4
20260508035953 62 253 12.0 19.0 0.00 0.00 0.00 54 1015.8
20260508035457 62 255 14.0 20.0 0.00 0.00 0.00 55 1015.9
20260508034005 62 269 12.0 21.0 0.00 0.00 0.00 56 1015.6
20260508032017 61 263 14.0 21.0 0.00 0.00 0.00 60 1015.3
20260508031023 61 262 11.0 17.0 0.00 0.00 0.00 63 1015.3
20260508030526 61 256 10.0 17.0 0.00 0.00 0.00 64 1015.2
20260508025532 62 261 11.0 17.0 0.00 0.00 0.00 62 1015.1
20260508024538 62 265 10.0 18.0 0.00 0.00 0.00 65 1015.0
20260508024041 62 258 10.0 18.0 0.00 0.00 0.00 66 1015.0
20260508023047 63 258 12.0 21.0 0.00 0.00 0.00 65 1015.0
20260508022053 63 259 13.0 19.0 0.00 0.00 0.00 64 1014.9
20260508015608 65 261 14.0 21.0 0.00 0.00 0.00 64 1014.8
20260508015111 65 258 11.0 21.0 0.00 0.00 0.00 68 1014.9
20260508014614 66 255 14.0 20.0 0.00 0.00 0.00 68 1014.9
20260508014117 66 262 12.0 19.0 0.00 0.00 0.00 63 1015.0
20260508012626 67 260 12.0 19.0 0.00 0.00 0.00 66 1015.0
20260508012129 67 275 13.0 18.0 0.00 0.00 0.00 63 1014.9
20260508010141 68 276 12.0 18.0 0.00 0.00 0.00 65 1015.1
20260508004650 69 272 14.0 20.0 0.00 0.00 0.00 61 1015.0
20260508004153 70 260 14.0 20.0 0.00 0.00 0.00 61 1015.1
20260508001708 70 284 9.0 20.0 0.00 0.00 0.00 57 1015.0
20260507234726 72 268 12.0 20.0 0.00 0.00 0.00 51 1015.3
20260507230750 73 275 12.0 18.0 0.00 0.00 0.00 52 2015.3
20260507223808 73 285 13.0 20.0 0.00 0.00 0.00 51 1015.3
20260507223311 73 265 10.0 16.0 0.00 0.00 0.00 51 1015.5
20260507221820 73 277 9.0 19.0 0.00 0.00 0.00 52 1015.5
20260507220329 73 282 11.0 18.0 0.00 0.00 0.00 50 1015.9
20260507215832 73 277 10.0 17.0 0.00 0.00 0.00 50 1015.9
20260507212850 73 270 10.0 20.0 0.00 0.00 0.00 50 1016.2
20260507204914 74 280 11.0 16.0 0.00 0.00 0.00 47 1015.8
20260507204417 74 264 9.0 16.0 0.00 0.00 0.00 45 1015.8
20260507194453 80 218 4.0 13.0 0.00 0.00 0.00 27 1016.4
20260507193956 79 116 4.0 14.0 0.00 0.00 0.00 31 1016.4
20260507193459 79 96 6.0 15.0 0.00 0.00 0.00 27 1016.6
20260507193002 80 91 2.0 15.0 0.00 0.00 0.00 24 1016.6
20260507192506 80 116 6.0 20.0 0.00 0.00 0.00 25 1016.6
20260507192008 80 136 7.0 20.0 0.00 0.00 0.00 28 1016.5
20260507191512 80 111 9.0 21.0 0.00 0.00 0.00 28 1016.5
20260507191014 80 142 7.0 21.0 0.00 0.00 0.00 27 1016.6
20260507190517 80 116 10.0 18.0 0.00 0.00 0.00 29 1016.7
20260507190020 80 103 4.0 19.0 0.00 0.00 0.00 28 1016.8
20260507185525 80 121 13.0 19.0 0.00 0.00 0.00 27 1016.8
20260507185026 80 103 10.0 18.0 0.00 0.00 0.00 31 1016.8
20260507184530 79 113 7.0 15.0 0.00 0.00 0.00 28 1016.8
20260507184032 79 128 9.0 15.0 0.00 0.00 0.00 30 1016.8